| time (UTC) | temp C | wind direction | speed KPH | gust KPH | rain 1hr cm | rain 24hr cm | rain mn cm | humidity % | barometer mb |
| 20260901070044 | 30 | 281 | 6.4 | 14.5 | 0.00 | 0.00 | 0.00 | 55 | 1016.1 |
| 20260901064535 | 30 | 0 | 6.4 | 14.5 | 0.00 | 0.00 | 0.00 | 55 | 1016.0 |
| 20260901063035 | 30 | 0 | 1.6 | 9.7 | 0.00 | 0.00 | 0.00 | 55 | 1015.9 |
| 20260901061535 | 30 | 270 | 3.2 | 12.9 | 0.00 | 0.00 | 0.00 | 54 | 1015.9 |
| 20260901060037 | 31 | 277 | 4.8 | 17.7 | 0.00 | 0.00 | 0.00 | 53 | 1015.7 |
| 20260901054535 | 31 | 267 | 8.0 | 17.7 | 0.00 | 0.00 | 0.00 | 52 | 1015.5 |
| 20260901053036 | 31 | 281 | 4.8 | 19.3 | 0.00 | 0.00 | 0.00 | 51 | 1015.4 |
| 20260901051543 | 31 | 222 | 9.7 | 17.7 | 0.00 | 0.00 | 0.00 | 51 | 1015.3 |
| 20260901050035 | 31 | 270 | 6.4 | 14.5 | 0.00 | 0.00 | 0.00 | 50 | 1015.2 |
| 20260901044551 | 30 | 252 | 1.6 | 6.4 | 0.00 | 0.00 | 0.00 | 49 | 1015.2 |
| 20260901043034 | 30 | 261 | 3.2 | 9.7 | 0.00 | 0.00 | 0.00 | 48 | 1015.0 |
| 20260901041534 | 30 | 292 | 4.8 | 9.7 | 0.00 | 0.00 | 0.00 | 49 | 1015.1 |
| 20260901040042 | 30 | 0 | 0.0 | 3.2 | 0.00 | 0.00 | 0.00 | 50 | 1014.9 |
| 20260901034536 | 31 | 245 | 0.0 | 3.2 | 0.00 | 0.00 | 0.00 | 50 | 1014.9 |
| 20260901033051 | 31 | 225 | 1.6 | 4.8 | 0.00 | 0.00 | 0.00 | 48 | 1014.9 |
| 20260901031536 | 31 | 0 | 0.0 | 3.2 | 0.00 | 0.00 | 0.00 | 47 | 1014.8 |
| 20260901030037 | 32 | 223 | 1.6 | 4.8 | 0.00 | 0.00 | 0.00 | 47 | 1014.7 |
| 20260901024539 | 32 | 207 | 3.2 | 6.4 | 0.00 | 0.00 | 0.00 | 48 | 1014.5 |
| 20260901023044 | 32 | 0 | 0.0 | 0.0 | 0.00 | 0.00 | 0.00 | 46 | 1014.2 |
| 20260901021552 | 33 | 0 | 0.0 | 1.6 | 0.00 | 0.00 | 0.00 | 46 | 1014.0 |
| 20260901020038 | 33 | 242 | 0.0 | 4.8 | 0.00 | 0.00 | 0.00 | 46 | 1014.0 |
| 20260901014538 | 34 | 275 | 0.0 | 4.8 | 0.00 | 0.00 | 0.00 | 42 | 1013.8 |
| 20260901013046 | 35 | 275 | 1.6 | 6.4 | 0.00 | 0.00 | 0.00 | 38 | 1013.9 |
| 20260901011558 | 35 | 277 | 1.6 | 6.4 | 0.00 | 0.00 | 0.00 | 37 | 1013.9 |
| 20260901010035 | 35 | 278 | 3.2 | 11.3 | 0.00 | 0.00 | 0.00 | 37 | 1013.6 |
| 20260901004538 | 36 | 330 | 3.2 | 14.5 | 0.00 | 0.00 | 0.00 | 37 | 1013.6 |
| 20260901003047 | 36 | 280 | 4.8 | 16.1 | 0.00 | 0.00 | 0.00 | 35 | 1013.6 |
| 20260901001536 | 36 | 249 | 6.4 | 12.9 | 0.00 | 0.00 | 0.00 | 35 | 1013.5 |
| 20260901000035 | 36 | 285 | 6.4 | 16.1 | 0.00 | 0.00 | 0.00 | 34 | 1013.5 |
| 20260831234536 | 37 | 234 | 8.0 | 16.1 | 0.00 | 0.00 | 0.00 | 34 | 1013.6 |
| 20260831233036 | 37 | 283 | 11.3 | 17.7 | 0.00 | 0.00 | 0.00 | 33 | 1013.6 |
| 20260831231537 | 36 | 5 | 4.8 | 19.3 | 0.00 | 0.00 | 0.00 | 32 | 1013.5 |
| 20260831230036 | 37 | 314 | 6.4 | 16.1 | 0.00 | 0.00 | 0.00 | 32 | 1013.5 |
| 20260831224536 | 37 | 355 | 6.4 | 12.9 | 0.00 | 0.00 | 0.00 | 31 | 1013.6 |
| 20260831223038 | 37 | 0 | 4.8 | 14.5 | 0.00 | 0.00 | 0.00 | 32 | 1013.8 |
| 20260831221547 | 37 | 284 | 6.4 | 14.5 | 0.00 | 0.00 | 0.00 | 31 | 1013.9 |
| 20260831220033 | 37 | 304 | 6.4 | 14.5 | 0.00 | 0.00 | 0.00 | 31 | 1013.9 |
| 20260831214534 | 37 | 355 | 8.0 | 16.1 | 0.00 | 0.00 | 0.00 | 32 | 1014.1 |
| 20260831213039 | 37 | 320 | 3.2 | 16.1 | 0.00 | 0.00 | 0.00 | 33 | 1014.2 |
| 20260831211542 | 37 | 290 | 8.0 | 16.1 | 0.00 | 0.00 | 0.00 | 33 | 1014.4 |
| 20260831210034 | 37 | 337 | 6.4 | 17.7 | 0.00 | 0.00 | 0.00 | 33 | 1014.5 |
| 20260831204538 | 37 | 352 | 6.4 | 19.3 | 0.00 | 0.00 | 0.00 | 33 | 1014.9 |
| 20260831203043 | 37 | 360 | 8.0 | 16.1 | 0.00 | 0.00 | 0.00 | 32 | 1015.1 |
| 20260831201544 | 37 | 25 | 9.7 | 22.5 | 0.00 | 0.00 | 0.00 | 32 | 1015.2 |
| 20260831200034 | 37 | 260 | 4.8 | 19.3 | 0.00 | 0.00 | 0.00 | 33 | 1015.4 |
| 20260831194538 | 37 | 311 | 9.7 | 19.3 | 0.00 | 0.00 | 0.00 | 35 | 1015.7 |
| 20260831193032 | 38 | 304 | 3.2 | 22.5 | 0.00 | 0.00 | 0.00 | 36 | 1016.0 |
| 20260831191536 | 36 | 319 | 6.4 | 19.3 | 0.00 | 0.00 | 0.00 | 38 | 1016.0 |
| 20260831190042 | 36 | 331 | 4.8 | 22.5 | 0.00 | 0.00 | 0.00 | 38 | 1016.2 |
| 20260831184536 | 36 | 360 | 9.7 | 17.7 | 0.00 | 0.00 | 0.00 | 38 | 1016.3 |
| 20260831183032 | 35 | 296 | 6.4 | 22.5 | 0.00 | 0.00 | 0.00 | 39 | 1016.5 |
| 20260831181536 | 35 | 279 | 9.7 | 17.7 | 0.00 | 0.00 | 0.00 | 38 | 1016.7 |
| 20260831180049 | 36 | 333 | 4.8 | 19.3 | 0.00 | 0.00 | 0.00 | 40 | 1016.8 |
| 20260831174534 | 35 | 323 | 3.2 | 11.3 | 0.00 | 0.00 | 0.00 | 44 | 1017.2 |
| 20260831173034 | 35 | 341 | 1.6 | 12.9 | 0.00 | 0.00 | 0.00 | 44 | 1017.4 |
| 20260831171535 | 35 | 13 | 3.2 | 12.9 | 0.00 | 0.00 | 0.00 | 45 | 1017.6 |
| 20260831170035 | 34 | 342 | 3.2 | 14.5 | 0.00 | 0.00 | 0.00 | 46 | 1017.8 |
| 20260831164541 | 33 | 283 | 9.7 | 19.3 | 0.00 | 0.00 | 0.00 | 47 | 1017.9 |
| 20260831163037 | 33 | 5 | 4.8 | 14.5 | 0.00 | 0.00 | 0.00 | 46 | 1017.9 |
| 20260831161541 | 33 | 15 | 8.0 | 17.7 | 0.00 | 0.00 | 0.00 | 46 | 1018.0 |
| 20260831160036 | 33 | 321 | 4.8 | 14.5 | 0.00 | 0.00 | 0.00 | 47 | 1017.9 |
| 20260831154601 | 32 | 355 | 4.8 | 12.9 | 0.00 | 0.00 | 0.00 | 48 | 1018.0 |
| 20260831153039 | 32 | 339 | 3.2 | 14.5 | 0.00 | 0.00 | 0.00 | 50 | 1017.8 |
| 20260831151536 | 31 | 342 | 4.8 | 16.1 | 0.00 | 0.00 | 0.00 | 52 | 1018.0 |
| 20260831150038 | 31 | 17 | 4.8 | 12.9 | 0.00 | 0.00 | 0.00 | 56 | 1017.8 |
| 20260831144545 | 30 | 341 | 4.8 | 11.3 | 0.00 | 0.00 | 0.00 | 60 | 1017.7 |
| 20260831143039 | 30 | 11 | 3.2 | 12.9 | 0.00 | 0.00 | 0.00 | 61 | 1017.8 |
| 20260831141537 | 28 | 319 | 4.8 | 9.7 | 0.00 | 0.00 | 0.00 | 63 | 1017.8 |
| 20260831140036 | 28 | 5 | 3.2 | 11.3 | 0.00 | 0.00 | 0.00 | 66 | 1017.7 |
| 20260831134535 | 28 | 352 | 4.8 | 11.3 | 0.00 | 0.00 | 0.00 | 68 | 1017.5 |
| 20260831133036 | 27 | 328 | 1.6 | 6.4 | 0.00 | 0.00 | 0.00 | 70 | 1017.5 |
| 20260831131536 | 26 | 311 | 3.2 | 6.4 | 0.00 | 0.00 | 0.00 | 72 | 1017.1 |
| 20260831130037 | 26 | 311 | 0.0 | 4.8 | 0.00 | 0.00 | 0.00 | 73 | 1017.0 |
| 20260831124536 | 25 | 315 | 0.0 | 3.2 | 0.00 | 0.00 | 0.00 | 73 | 1016.8 |
| 20260831123036 | 25 | 315 | 0.0 | 3.2 | 0.00 | 0.00 | 0.00 | 73 | 1016.6 |
| 20260831121536 | 25 | 0 | 1.6 | 4.8 | 0.00 | 0.00 | 0.00 | 71 | 1016.3 |
| 20260831120042 | 25 | 0 | 1.6 | 6.4 | 0.00 | 0.00 | 0.00 | 70 | 1016.1 |
| 20260831114538 | 26 | 295 | 3.2 | 4.8 | 0.00 | 0.00 | 0.00 | 69 | 1015.9 |
| 20260831113035 | 26 | 302 | 1.6 | 6.4 | 0.00 | 0.00 | 0.00 | 69 | 1015.8 |
| 20260831111533 | 26 | 0 | 1.6 | 6.4 | 0.00 | 0.00 | 0.00 | 68 | 1015.5 |
| 20260831110041 | 26 | 290 | 3.2 | 6.4 | 0.00 | 0.00 | 0.00 | 67 | 1015.4 |
| 20260831104536 | 26 | 281 | 1.6 | 4.8 | 0.00 | 0.00 | 0.00 | 67 | 1015.5 |
| 20260831103036 | 26 | 0 | 0.0 | 0.0 | 0.00 | 0.00 | 0.00 | 66 | 1015.3 |
| 20260831101546 | 26 | 0 | 0.0 | 0.0 | 0.00 | 0.00 | 0.00 | 65 | 1015.4 |
| 20260831100034 | 27 | 0 | 0.0 | 8.0 | 0.00 | 0.00 | 0.00 | 65 | 1015.5 |
| 20260831094536 | 27 | 0 | 1.6 | 6.4 | 0.00 | 0.00 | 0.00 | 63 | 1015.3 |
| 20260831093039 | 27 | 301 | 1.6 | 6.4 | 0.00 | 0.00 | 0.00 | 62 | 1015.2 |
| 20260831091551 | 27 | 288 | 1.6 | 6.4 | 0.00 | 0.00 | 0.00 | 61 | 1015.1 |
| 20260831090035 | 27 | 275 | 1.6 | 6.4 | 0.00 | 0.00 | 0.00 | 61 | 1014.9 |
| 20260831084539 | 27 | 304 | 0.0 | 3.2 | 0.00 | 0.00 | 0.00 | 60 | 1014.9 |
| 20260831083037 | 27 | 0 | 0.0 | 0.0 | 0.00 | 0.00 | 0.00 | 60 | 1014.8 |
| 20260831081538 | 27 | 0 | 0.0 | 3.2 | 0.00 | 0.00 | 0.00 | 60 | 1014.7 |
| 20260831080056 | 27 | 304 | 1.6 | 4.8 | 0.00 | 0.00 | 0.00 | 61 | 1014.7 |
| 20260831074538 | 27 | 308 | 1.6 | 6.4 | 0.00 | 0.00 | 0.00 | 61 | 1014.5 |
| 20260831073058 | 27 | 0 | 0.0 | 0.0 | 0.00 | 0.00 | 0.00 | 61 | 1014.5 |
| 20260831071542 | 27 | 0 | 0.0 | 0.0 | 0.00 | 0.00 | 0.00 | 62 | 1014.3 |